1504047601.21,57097,21.81,74370.3,4.35,-31.33,-31.61,0,*74
1504047602.43,57098,21.81,74370.0,4.39,-31.17,-31.33,0,*76
1504047603.68,57099,21.81,74374.5,4.39,-31.29,-31.51,0,*7E
1504047604.88,57100,21.81,74372.5,4.41,-31.29,-31.45,0,*75
1504047606.11,57101,21.81,74372.5,4.39,-31.17,-31.45,0,*76
1504047607.34,57102,21.81,74368.8,4.39,-31.17,-31.45,0,*75
1504047608.59,57103,21.81,74374.5,4.39,-31.29,-31.51,0,*7C
1504047609.82,57104,21.81,74368.5,4.39,-31.17,-31.45,0,*73
1504047611.04,57105,21.81,74370.5,4.39,-31.17,-31.45,0,*72
1504047612.29,57106,21.81,74374.0,4.39,-31.17,-31.51,0,*74
1504047613.51,57107,21.81,74372.0,4.39,-31.01,-31.33,0,*76
1504047614.78,57108,21.81,74372.0,4.39,-30.95,-31.11,0,*75
1504047616.03,57109,21.81,74374.5,4.39,-31.11,-31.33,0,*79
1504047617.26,57110,21.81,74368.8,4.39,-31.01,-31.29,0,*7B
1504047618.51,57111,21.81,74370.3,4.39,-31.11,-31.33,0,*70
1504047619.73,57112,21.81,74368.5,4.41,-31.05,-31.23,0,*78
1504047620.95,57113,21.81,74370.3,4.41,-31.05,-31.23,0,*79
1504047622.18,57114,21.81,74370.8,4.41,-31.05,-31.39,0,*75
1504047623.4,57115,21.81,74368.0,4.41,-30.95,-31.29,0,*7D
1504047624.66,57116,21.81,74372.0,4.41,-30.95,-31.23,0,*74
1504047625.91,57117,21.81,74372.3,4.39,-30.95,-31.17,0,*7D
1504047627.16,57118,21.81,74370.8,4.39,-30.95,-31.33,0,*74
1504047628.37,57119,21.81,74370.0,4.39,-31.01,-31.33,0,*79
1504047629.63,57120,21.81,74370.0,4.41,-30.95,-31.23,0,*71
1504047630.83,57121,21.81,74368.0,4.41,-31.05,-31.29,0,*72
1504047632.08,57122,21.81,74368.8,4.41,-31.11,-31.39,0,*75
1504047633.33,57123,21.81,74370.8,4.41,-30.95,-31.23,0,*72
1504047634.58,57124,21.81,74370.5,4.43,-31.05,-31.23,0,*7F
1504047635.8,57125,21.81,74372.8,4.43,-31.05,-31.33,0,*7F
1504047637.02,57126,21.81,74370.0,4.43,-31.05,-31.33,0,*7C
1504047638.27,57127,21.81,74372.8,4.41,-30.95,-31.23,0,*76
1504047639.5,57128,21.81,74374.8,4.41,-30.95,-31.29,0,*73
1504047640.75,57129,21.81,74370.3,4.43,-31.01,-31.23,0,*76
1504047641.96,57130,21.81,74374.5,4.43,-31.01,-31.33,0,*7F
1504047643.22,57131,21.81,74370.8,4.41,-31.11,-31.39,0,*77
1504047644.45,57132,21.81,74370.5,4.41,-30.95,-31.29,0,*78
1504047645.66,57133,21.81,74370.3,4.43,-31.01,-31.33,0,*7C
1504047646.91,57134,21.81,74372.5,4.43,-31.01,-31.23,0,*7A
1504047648.14,57135,21.81,74372.0,4.43,-31.17,-31.45,0,*7C
1504047649.39,57136,21.81,74370.8,4.43,-31.01,-31.23,0,*78
1504047650.61,57137,21.81,74372.5,4.41,-30.95,-31.29,0,*7D
1504047651.86,57138,21.81,74370.8,4.43,-31.01,-31.23,0,*76
1504047653.06,57139,21.81,74374.5,4.41,-31.05,-31.29,0,*7B
1504047654.25,57140,21.81,74370.3,4.41,-31.05,-31.33,0,*7E
1504047655.53,57141,21.81,74374.5,4.43,-30.89,-31.23,0,*79
1504047656.73,57142,21.81,74370.8,4.41,-31.05,-31.29,0,*77
1504047657.97,57143,21.81,74374.8,4.43,-31.01,-31.23,0,*7A
1504047659.25,57144,21.81,74368.3,4.43,-30.89,-31.23,0,*7C
1504047660.48,57145,21.81,74368.3,4.41,-31.05,-31.23,0,*7A
1504047661.7,57146,21.81,74370.0,4.43,-31.17,-31.33,0,*79
1504047662.91,57147,21.81,74374.8,4.43,-31.05,-31.33,0,*7B
1504047664.13,57148,21.81,74372.0,4.43,-31.05,-31.33,0,*74
1504047665.38,57149,21.81,74374.3,4.43,-31.17,-31.51,0,*72
1504047666.59,57150,21.81,74374.3,4.43,-31.05,-31.33,0,*7D
1504047667.84,57151,21.81,74372.8,4.43,-30.89,-31.33,0,*79
1504047669.12,57152,21.81,74370.5,4.43,-30.89,-31.23,0,*7B
1504047670.36,57153,21.81,74368.5,4.43,-31.17,-31.39,0,*77
1504047671.61,57154,21.81,74368.8,4.43,-31.01,-31.23,0,*7C
1504047672.83,57155,21.81,74368.8,4.43,-31.05,-31.33,0,*78
1504047674.05,57156,21.81,74370.0,4.41,-31.17,-31.39,0,*70
1504047675.28,57157,21.75,74370.8,4.45,-31.01,-31.23,0,*79
1504047676.5,57158,21.81,74374.8,4.43,-31.17,-31.33,0,*76
1504047677.78,57159,21.81,74374.8,4.43,-31.23,-31.51,0,*74
1504047679.02,57160,21.81,74368.5,4.41,-31.39,-31.57,0,*71
1504047680.26,57161,21.81,74372.3,4.43,-31.33,-31.57,0,*78
1504047681.48,57162,21.75,74370.8,4.41,-31.39,-31.79,0,*7F
1504047682.7,57163,21.81,74374.8,4.41,-31.05,-31.39,0,*75
1504047683.95,57164,21.81,74370.8,4.43,-31.05,-31.23,0,*7B
1504047685.17,57165,21.81,74370.8,4.43,-31.17,-31.33,0,*78
1504047686.42,57166,21.81,74372.0,4.43,-31.33,-31.57,0,*7F
1504047687.68,57167,21.81,74372.3,4.43,-31.39,-31.73,0,*72
1504047688.92,57168,21.75,74368.5,4.43,-31.39,-31.67,0,*78
1504047690.14,57169,21.81,74374.8,4.43,-31.05,-31.33,0,*77
1504047691.42,57170,21.81,74374.5,4.43,-30.89,-31.23,0,*7B
1504047692.63,57171,21.81,74370.8,4.43,-31.05,-31.33,0,*7E
1504047693.86,57172,21.81,74372.5,4.45,-31.17,-31.39,0,*72
1504047695.11,57173,21.81,74372.0,4.43,-31.01,-31.23,0,*79
1504047696.36,57174,21.81,74372.3,4.43,-31.01,-31.23,0,*7E
1504047697.55,57175,21.81,74372.8,4.41,-31.05,-31.29,0,*73
1504047698.78,57176,21.81,74370.8,4.43,-30.83,-31.05,0,*73
1504047700.03,57177,21.75,74370.5,4.43,-31.33,-31.51,0,*79
1504047701.27,57178,21.81,74372.8,4.43,-31.51,-31.67,0,*77
1504047702.51,57179,21.81,74372.3,4.43,-31.17,-31.39,0,*7F
1504047703.76,57180,21.81,74374.3,4.43,-31.17,-31.51,0,*77
1504047705.01,57181,21.81,74374.0,4.43,-31.39,-31.67,0,*7F
1504047706.21,57182,21.75,74370.0,4.41,-31.45,-31.79,0,*7A
1504047707.45,57183,21.81,74374.5,4.41,-31.39,-31.73,0,*7A
1504047708.7,57184,21.81,74372.3,4.43,-31.17,-31.51,0,*73
1504047709.9,57185,21.81,74372.0,4.41,-31.05,-31.29,0,*7C
1504047711.09,57186,21.81,74374.8,4.41,-31.05,-31.29,0,*7F
1504047712.35,57187,21.81,74372.5,4.41,-31.11,-31.39,0,*7A
1504047713.6,57188,21.81,74372.3,4.43,-31.05,-31.23,0,*79
1504047714.82,57189,21.75,74370.5,4.41,-31.29,-31.57,0,*77
1504047716.04,57190,21.75,74370.5,4.41,-31.29,-31.57,0,*7F
1504047717.28,57191,21.81,74374.8,4.41,-31.39,-31.57,0,*7F
1504047718.53,57192,21.81,74372.8,4.41,-31.11,-31.39,0,*7E
1504047719.78,57193,21.81,74374.3,4.43,-31.05,-31.39,0,*78
1504047721.02,57194,21.81,74372.8,4.43,-31.17,-31.39,0,*7C
1504047722.27,57195,21.75,74370.3,4.43,-31.05,-31.39,0,*7E
1504047723.53,57196,21.75,74368.5,4.41,-31.11,-31.23,0,*71
1504047724.76,57197,21.75,74368.0,4.41,-31.11,-31.29,0,*7A
1504047726.0,57198,21.81,74372.8,4.41,-31.39,-31.73,0,*70
1504047727.26,57199,21.75,74370.8,4.41,-31.73,-31.95,0,*77
1504047728.51,57200,21.75,74370.3,4.41,-31.61,-31.91,0,*73
1504047729.76,57201,21.75,74370.5,4.41,-31.23,-31.39,0,*76
1504047731.01,57202,21.75,74372.8,4.41,-31.39,-31.61,0,*73
1504047732.25,57203,21.81,74372.3,4.41,-31.23,-31.45,0,*7F
1504047733.44,57204,21.81,74372.5,4.41,-31.05,-31.29,0,*76
1504047734.7,57205,21.81,74374.8,4.41,-31.11,-31.39,0,*73
1504047735.95,57206,21.81,74372.8,4.41,-30.95,-31.23,0,*76
1504047737.15,57207,21.81,74374.0,4.41,-31.05,-31.29,0,*75
1504047738.37,57208,21.81,74374.0,4.43,-31.17,-31.33,0,*70
1504047739.62,57209,21.75,74368.5,4.43,-31.33,-31.51,0,*73
1504047740.84,57210,21.81,74374.8,4.41,-31.45,-31.73,0,*78
1504047742.08,57211,21.81,74370.3,4.41,-31.39,-31.73,0,*72
1504047743.31,57212,21.81,74374.3,4.41,-31.45,-31.73,0,*7A
1504047744.58,57213,21.75,74370.8,4.39,-31.61,-31.85,0,*7B
1504047745.83,57214,21.81,74372.5,4.41,-31.57,-31.73,0,*7F
1504047747.06,57215,21.75,74372.5,4.41,-31.23,-31.45,0,*78
1504047748.29,57216,21.81,74374.0,4.41,-31.57,-31.79,0,*77
1504047749.54,57217,21.75,74370.8,4.41,-31.57,-31.61,0,*7F
1504047750.76,57218,21.75,74372.0,4.41,-31.29,-31.57,0,*7C
1504047752.01,57219,21.81,74372.5,4.39,-31.11,-31.33,0,*7B
1504047753.27,57220,21.75,74368.3,4.39,-31.11,-31.33,0,*71
1504047754.46,57221,21.81,74374.3,4.41,-31.05,-31.29,0,*71
1504047755.71,57222,21.75,74368.8,4.43,-31.17,-31.51,0,*7C
1504047756.96,57223,21.75,74370.8,4.41,-31.39,-31.61,0,*70
1504047758.18,57224,21.75,74368.5,4.39,-31.45,-31.67,0,*75
1504047759.4,57225,21.75,74372.3,4.41,-31.29,-31.57,0,*72
1504047760.65,57226,21.75,74372.3,4.41,-31.39,-31.61,0,*75
1504047761.89,57227,21.75,74372.3,4.39,-31.51,-31.67,0,*73
1504047763.12,57228,21.81,74374.0,4.35,-31.45,-31.79,0,*7A
1504047764.36,57229,21.81,74374.3,4.39,-31.67,-31.85,0,*74
1504047765.59,57230,21.75,74368.3,4.35,-31.29,-31.45,0,*76
1504047766.84,57231,21.75,74370.8,4.39,-31.17,-31.61,0,*70
1504047768.06,57232,21.75,74372.5,4.39,-31.33,-31.67,0,*73
1504047769.31,57233,21.81,74374.0,4.35,-31.67,-31.85,0,*73
1504047770.55,57234,21.75,74372.3,4.39,-31.67,-31.85,0,*78
1504047771.77,57235,21.75,74368.8,4.35,-31.29,-31.67,0,*73
1504047773.01,57236,21.75,74374.8,4.35,-31.51,-31.79,0,*70
1504047774.27,57237,21.75,74370.5,4.35,-31.11,-31.45,0,*7A
1504047775.5,57238,21.81,74374.5,4.39,-31.17,-31.45,0,*7F
1504047776.75,57239,21.81,74374.0,4.39,-31.29,-31.51,0,*76
1504047778.0,57240,21.81,74374.0,4.39,-31.29,-31.61,0,*7B
1504047779.22,57241,21.81,74374.0,4.39,-31.45,-31.67,0,*76
1504047780.47,57242,21.75,74370.3,4.39,-31.51,-31.79,0,*7F
1504047781.69,57243,21.75,74370.3,4.39,-31.33,-31.45,0,*75
1504047782.94,57244,21.81,74374.3,4.35,-31.29,-31.61,0,*73
1504047784.19,57245,21.75,74370.8,4.35,-31.17,-31.61,0,*7F
1504047785.41,57246,21.75,74370.8,4.35,-31.29,-31.67,0,*77
1504047786.66,57247,21.75,74372.5,4.39,-31.29,-31.61,0,*7C
1504047787.91,57248,21.81,74372.0,4.35,-31.29,-31.61,0,*7F
1504047789.14,57249,21.75,74372.5,4.35,-31.45,-31.67,0,*72
1504047790.41,57250,21.75,74372.0,4.39,-31.51,-31.85,0,*7F
1504047791.65,57251,21.75,74374.3,4.35,-31.51,-31.67,0,*7E
1504047792.9,57252,21.75,74372.5,4.35,-31.45,-31.61,0,*7E
1504047794.13,57253,21.75,74370.3,4.35,-31.45,-31.67,0,*79
1504047795.38,57254,21.81,74374.0,4.33,-31.57,-31.73,0,*7E
1504047796.63,57255,21.75,74370.3,4.33,-31.51,-31.91,0,*75
1504047797.89,57256,21.75,74372.5,4.33,-31.85,-32.07,0,*73
1504047799.14,57257,21.75,74370.8,4.33,-31.51,-31.85,0,*72
1504047800.39,57258,21.75,74370.8,4.33,-31.73,-31.91,0,*78
1504047801.64,57259,21.75,74374.3,4.33,-31.39,-31.85,0,*72
1504047802.87,57260,21.75,74368.5,4.35,-31.45,-31.67,0,*79
1504047804.15,57261,21.75,74370.3,4.31,-31.57,-31.85,0,*73
1504047805.4,57262,21.81,74372.8,4.31,-31.17,-31.39,0,*73
1504047806.63,57263,21.75,74374.0,4.33,-31.17,-31.39,0,*70
1504047807.88,57264,21.75,74372.5,4.31,-31.39,-31.67,0,*72
1504047809.12,57265,21.75,74368.0,4.33,-31.51,-31.73,0,*7A
1504047810.38,57266,21.75,74370.5,4.33,-31.23,-31.51,0,*7C
1504047811.66,57267,21.81,74372.5,4.31,-31.57,-31.91,0,*70
1504047812.92,57268,21.75,74374.0,4.31,-31.73,-32.01,0,*73
1504047814.19,57269,21.75,74372.8,4.31,-31.51,-31.85,0,*7D
1504047815.47,57270,21.75,74372.8,4.31,-31.73,-31.91,0,*70
1504047816.75,57271,21.81,74374.8,4.31,-31.51,-31.73,0,*7D
1504047818.0,57272,21.75,74374.3,4.33,-31.57,-31.91,0,*76
1504047819.28,57273,21.75,74368.0,4.31,-31.57,-31.85,0,*70
1504047820.53,57274,21.75,74372.8,4.31,-31.33,-31.73,0,*7C
1504047821.76,57275,21.75,74374.3,4.29,-31.29,-31.61,0,*7C
1504047822.95,57276,21.75,74372.5,4.27,-31.33,-31.67,0,*7C
1504047824.2,57277,21.75,74370.8,4.29,-31.39,-31.73,0,*7C
1504047825.43,57278,21.75,74374.5,4.29,-31.45,-31.73,0,*78
1504047826.66,57279,21.75,74370.8,4.29,-31.29,-31.61,0,*70
1504047827.88,57280,21.75,74374.0,4.29,-31.39,-31.79,0,*7E
1504047829.1,57281,21.75,74374.0,4.27,-31.61,-32.01,0,*70
1504047830.36,57282,21.75,74372.5,4.29,-31.57,-31.91,0,*72
1504047831.6,57283,21.81,74374.0,4.29,-31.11,-31.45,0,*78
1504047832.84,57284,21.75,74368.3,4.29,-31.23,-31.45,0,*7E
1504047834.09,57285,21.75,74370.0,4.29,-31.39,-31.61,0,*72
1504047835.33,57286,21.75,74374.3,4.29,-31.11,-31.45,0,*7D
1504047836.56,57287,21.75,74374.0,4.29,-31.23,-31.45,0,*7D
1504047837.79,57288,21.75,74370.8,4.29,-31.29,-31.57,0,*7B
1504047839.03,57289,21.75,74366.8,4.29,-31.39,-31.57,0,*7B
1504047840.29,57290,21.75,74374.3,4.29,-31.57,-31.91,0,*71
1504047841.54,57291,21.75,74372.0,4.29,-31.39,-31.61,0,*77
1504047842.77,57292,21.75,74368.3,4.29,-31.29,-31.57,0,*70
1504047844.02,57293,21.75,74372.5,4.29,-31.23,-31.57,0,*7B
1504047845.22,57294,21.75,74370.3,4.29,-31.05,-31.29,0,*71
1504047846.46,57295,21.81,74372.0,4.29,-31.23,-31.45,0,*7E
1504047847.72,57296,21.75,74372.0,4.29,-31.11,-31.39,0,*77
1504047848.92,57297,21.75,74370.5,4.29,-30.83,-31.05,0,*73
1504047850.18,57298,21.75,74370.8,4.31,-31.01,-31.23,0,*7A
1504047851.41,57299,21.75,74370.0,4.33,-31.33,-31.51,0,*7D
1504047852.66,57300,21.75,74368.8,4.31,-31.33,-31.73,0,*7E
1504047853.88,57301,21.75,74370.0,4.31,-31.33,-31.67,0,*7A
1504047855.15,57302,21.75,74372.5,4.31,-31.51,-31.73,0,*78
1504047856.38,57303,21.75,74370.5,4.31,-31.33,-31.67,0,*78
1504047857.66,57304,21.75,74374.8,4.31,-31.23,-31.57,0,*7D
1504047858.85,57305,21.75,74374.0,4.27,-31.45,-31.67,0,*78
1504047860.08,57306,21.75,74368.5,4.29,-31.05,-31.39,0,*7A
1504047861.34,57307,21.75,74372.3,4.29,-31.11,-31.39,0,*7E
1504047862.58,57308,21.75,74374.0,4.29,-31.23,-31.45,0,*7B
1504047863.82,57309,21.75,74370.5,4.29,-31.39,-31.73,0,*74
1504047865.07,57310,21.75,74368.3,4.29,-31.39,-31.57,0,*7A
1504047866.3,57311,21.75,74370.8,4.29,-31.57,-31.79,0,*7F
1504047867.53,57312,21.75,74368.8,4.29,-31.57,-31.79,0,*7C
1504047868.76,57313,21.75,74372.0,4.29,-31.57,-31.79,0,*7D
1504047869.98,57314,21.75,74368.3,4.29,-31.29,-31.73,0,*79
1504047871.2,57315,21.75,74368.3,4.29,-31.29,-31.57,0,*7E
1504047872.46,57316,21.75,74370.0,4.29,-31.57,-31.91,0,*7E
1504047873.72,57317,21.75,74372.8,4.29,-31.61,-31.91,0,*7A
1504047874.95,57318,21.75,74370.3,4.29,-31.11,-31.45,0,*7B
1504047876.18,57319,21.75,74372.0,4.27,-31.11,-31.45,0,*74
1504047877.41,57320,21.75,74372.3,4.29,-31.05,-31.39,0,*7E
1504047878.63,57321,21.75,74372.3,4.27,-31.29,-31.51,0,*71
1504047879.83,57322,21.75,74372.3,4.27,-31.05,-31.45,0,*79
1504047881.11,57323,21.75,74372.0,4.31,-30.61,-30.77,0,*7C
1504047882.33,57324,21.75,74372.0,4.31,-31.05,-31.33,0,*79
1504047883.62,57325,21.75,74368.5,4.31,-31.57,-31.91,0,*77
1504047884.9,57326,21.75,74370.0,4.31,-31.57,-31.91,0,*74
1504047886.11,57327,21.75,74368.3,4.27,-31.51,-31.67,0,*7D
1504047887.37,57328,21.75,74370.0,4.29,-31.61,-31.91,0,*76
1504047888.62,57329,21.75,74372.3,4.29,-31.61,-31.91,0,*77
1504047889.85,57330,21.75,74368.8,4.29,-31.29,-31.61,0,*7C
1504047891.08,57331,21.75,74374.0,4.29,-31.45,-31.73,0,*74
1504047892.33,57332,21.75,74374.0,4.29,-31.39,-31.61,0,*7F
1504047893.53,57333,21.75,74370.3,4.27,-31.45,-31.79,0,*72
1504047894.76,57334,21.75,74372.5,4.29,-31.45,-31.61,0,*72
1504047896.02,57335,21.81,74374.8,4.29,-31.39,-31.61,0,*78
1504047897.21,57336,21.75,74370.3,4.27,-31.45,-31.67,0,*78
1504047898.43,57337,21.75,74370.8,4.27,-31.29,-31.51,0,*76
1504047899.65,57338,21.75,74372.5,4.27,-31.29,-31.51,0,*79
1504047900.85,57339,21.75,74370.8,4.27,-31.45,-31.67,0,*77
1504047902.1,57340,21.75,74372.0,4.27,-31.51,-31.95,0,*71
1504047903.29,57341,21.75,74368.8,4.27,-31.79,-32.01,0,*74
1504047904.48,57342,21.75,74370.0,4.27,-31.79,-32.13,0,*74
1504047905.7,57343,21.75,74368.5,4.27,-31.67,-31.95,0,*77
1504047906.92,57344,21.75,74368.0,4.27,-31.33,-31.61,0,*7A
1504047908.15,57345,21.75,74370.0,4.27,-31.11,-31.29,0,*77
1504047909.38,57346,21.75,74370.8,4.25,-31.17,-31.45,0,*7A
1504047910.59,57347,21.75,74368.3,4.25,-31.33,-31.67,0,*7D
1504047911.83,57348,21.75,74370.0,4.27,-31.51,-31.85,0,*78
1504047913.09,57349,21.75,74372.5,4.27,-31.61,-31.95,0,*7B
1504047914.33,57350,21.75,74370.3,4.25,-31.33,-31.51,0,*7E
1504047915.52,57351,21.75,74374.8,4.27,-31.05,-31.33,0,*7C
1504047916.77,57352,21.75,74372.5,4.27,-31.11,-31.51,0,*7E
1504047917.97,57353,21.75,74370.0,4.27,-31.45,-31.79,0,*74
1504047919.21,57354,21.75,74372.0,4.27,-31.51,-31.85,0,*75
1504047920.45,57355,21.75,74374.5,4.25,-31.33,-31.61,0,*78
1504047921.7,57356,21.75,74372.0,4.27,-31.61,-31.85,0,*74
1504047922.95,57357,21.75,74368.3,4.25,-31.61,-31.79,0,*74
1504047924.22,57358,21.75,74370.0,4.25,-31.61,-31.85,0,*78
1504047925.47,57359,21.75,74372.5,4.25,-31.29,-31.51,0,*7C
1504047926.74,57360,21.75,74370.3,4.25,-30.89,-31.11,0,*79
1504047927.99,57361,21.75,74372.0,4.25,-31.11,-31.29,0,*73
1504047929.24,57362,21.75,74370.3,4.25,-31.29,-31.51,0,*74
1504047930.49,57363,21.75,74368.5,4.25,-31.17,-31.51,0,*78
1504047931.74,57364,21.75,74368.5,4.25,-31.11,-31.33,0,*7D
1504047932.96,57365,21.75,74370.3,4.27,-31.33,-31.61,0,*79
1504047934.18,57366,21.75,74368.8,4.27,-31.11,-31.33,0,*7D
1504047935.43,57367,21.75,74368.8,4.25,-31.29,-31.61,0,*72
1504047936.68,57368,21.75,74370.3,4.25,-31.33,-31.61,0,*76
1504047937.92,57369,21.75,74368.3,4.23,-31.23,-31.57,0,*75
1504047939.14,57370,21.75,74368.5,4.25,-31.05,-31.29,0,*76
1504047940.37,57371,21.75,74368.8,4.25,-31.17,-31.45,0,*7E
1504047941.59,57372,21.75,74370.3,4.27,-31.29,-31.61,0,*74
1504047942.84,57373,21.75,74370.8,4.25,-31.29,-31.61,0,*77
1504047944.06,57374,21.75,74370.8,4.25,-31.45,-31.67,0,*7C
1504047945.29,57375,21.75,74370.3,4.25,-31.17,-31.45,0,*7A
1504047946.54,57376,21.75,74370.5,4.25,-31.11,-31.45,0,*7F
1504047947.77,57377,21.75,74368.5,4.25,-31.17,-31.45,0,*78
1504047948.99,57378,21.75,74366.5,4.27,-31.11,-31.33,0,*72
1504047950.22,57379,21.75,74368.5,4.27,-30.89,-31.17,0,*75
1504047951.44,57380,21.75,74368.5,4.25,-31.17,-31.45,0,*70
1504047952.7,57381,21.75,74368.0,4.29,-31.23,-31.57,0,*79
1504047953.92,57382,21.75,74370.5,4.27,-30.95,-31.29,0,*71
1504047955.14,57383,21.75,74368.5,4.27,-30.95,-31.17,0,*7D
1504047956.38,57384,21.75,74368.0,4.27,-30.89,-30.95,0,*7C
1504047957.61,57385,21.75,74368.8,4.29,-31.05,-31.39,0,*71
1504047958.85,57386,21.75,74370.3,4.29,-31.11,-31.45,0,*7C
1504047960.07,57387,21.75,74368.0,4.27,-31.29,-31.51,0,*7D
1504047961.29,57388,21.75,74370.0,4.29,-31.29,-31.57,0,*7A
1504047962.48,57389,21.75,74366.5,4.27,-31.33,-31.67,0,*7D
1504047963.68,57390,21.75,74370.3,4.27,-31.45,-31.67,0,*74
1504047964.9,57391,21.75,74372.5,4.27,-31.17,-31.51,0,*77
1504047966.12,57392,21.75,74370.3,4.27,-31.29,-31.61,0,*7A
1504047967.32,57393,21.75,74372.5,4.27,-31.45,-31.79,0,*78
1504047968.53,57394,21.75,74368.5,4.27,-31.39,-31.67,0,*7B
1504047969.75,57395,21.75,74370.0,4.27,-31.33,-31.61,0,*76
1504047970.97,57396,21.75,74372.3,4.27,-31.29,-31.51,0,*7D
1504047972.19,57397,21.75,74370.3,4.27,-31.51,-31.79,0,*79
1504047973.41,57398,21.75,74372.3,4.27,-31.33,-31.61,0,*7B
1504047974.63,57399,21.75,74368.5,4.27,-30.95,-31.29,0,*7B
1504047975.85,57400,21.75,74368.8,4.27,-30.95,-31.33,0,*77
1504047977.07,57401,21.75,74370.0,4.27,-31.29,-31.51,0,*74
1504047978.26,57402,21.75,74370.5,4.27,-31.33,-31.67,0,*79
1504047979.47,57403,21.75,74372.8,4.29,-31.29,-31.45,0,*7D
1504047980.69,57404,21.75,74370.8,4.27,-31.29,-31.51,0,*71
1504047981.92,57405,21.75,74368.5,4.29,-31.29,-31.57,0,*78
1504047983.14,57406,21.75,74370.8,4.27,-31.33,-31.51,0,*78
1504047984.36,57407,21.75,74368.5,4.25,-31.05,-31.17,0,*7C
1504047985.6,57408,21.75,74370.0,4.25,-31.29,-31.51,0,*7F
1504047986.82,57409,21.75,74368.3,4.27,-31.29,-31.51,0,*7C
1504047988.02,57410,21.75,74368.5,4.27,-31.17,-31.45,0,*7C
1504047989.21,57411,21.75,74368.5,4.27,-31.05,-31.33,0,*7F
1504047990.43,57412,21.75,74370.8,4.27,-31.17,-31.51,0,*7B
1504047991.65,57413,21.75,74368.0,4.27,-31.29,-31.61,0,*74
1504047992.88,57414,21.75,74368.3,4.27,-31.29,-31.61,0,*73
1504047994.09,57415,21.75,74368.8,4.27,-31.51,-31.67,0,*7B
1504047995.28,57416,21.75,74368.5,4.27,-31.05,-31.33,0,*78
1504047996.5,57417,21.75,74368.5,4.27,-31.29,-31.51,0,*73
1504047997.72,57418,21.75,74368.5,4.27,-31.33,-31.61,0,*74
1504047998.92,57419,21.75,74370.3,4.27,-31.17,-31.45,0,*75
1504048000.14,57420,21.75,74370.0,4.27,-30.89,-31.17,0,*7E
1504048001.37,57421,21.75,74370.0,4.27,-30.95,-31.17,0,*72
1504048002.56,57422,21.75,74370.0,4.27,-31.33,-31.67,0,*7B
1504048003.75,57423,21.75,74368.3,4.27,-31.67,-32.01,0,*78
1504048004.94,57424,21.75,74370.8,4.27,-31.67,-31.79,0,*73
1504048006.18,57425,21.75,74370.8,4.25,-31.67,-31.95,0,*72
1504048007.4,57426,21.75,74370.8,4.25,-31.79,-32.01,0,*70
1504048008.65,57427,21.75,74368.3,4.25,-31.67,-31.95,0,*70
1504048009.9,57428,21.75,74370.8,4.23,-31.57,-31.91,0,*7E
1504048011.15,57429,21.75,74370.8,4.25,-31.67,-31.95,0,*7E
1504048012.4,57430,21.75,74370.0,4.25,-31.29,-31.61,0,*77
1504048013.64,57431,21.75,74368.8,4.23,-31.39,-31.73,0,*72
1504048014.89,57432,21.75,74366.8,4.25,-30.95,-31.17,0,*72
1504048016.16,57433,21.75,74372.0,4.25,-30.89,-31.11,0,*78
1504048017.41,57434,21.75,74370.8,4.25,-30.89,-31.17,0,*79
1504048018.66,57435,21.75,74368.5,4.25,-30.95,-31.17,0,*75
1504048019.91,57436,21.75,74370.0,4.25,-30.95,-31.29,0,*7B
1504048021.16,57437,21.75,74370.0,4.25,-30.95,-31.17,0,*77
1504048022.38,57438,21.75,74370.0,4.25,-31.17,-31.33,0,*75
1504048023.62,57439,21.75,74368.5,4.25,-31.29,-31.51,0,*7D
1504048024.85,57440,21.75,74370.0,4.27,-31.33,-31.61,0,*79
1504048026.04,57441,21.75,74370.8,4.27,-31.33,-31.67,0,*7E
1504048027.28,57442,21.75,74368.3,4.25,-31.17,-31.51,0,*7C
1504048028.5,57443,21.75,74366.3,4.25,-31.05,-31.29,0,*71
1504048029.72,57444,21.75,74368.0,4.25,-31.05,-31.33,0,*7D
1504048030.92,57445,21.75,74368.3,4.27,-31.45,-31.79,0,*74
1504048032.11,57446,21.75,74368.3,4.27,-31.33,-31.67,0,*79
1504048033.3,57447,21.75,74368.0,4.27,-31.33,-31.67,0,*78
1504048034.52,57448,21.75,74366.3,4.25,-31.17,-31.33,0,*72
1504048035.79,57449,21.75,74370.5,4.25,-30.89,-31.11,0,*75
1504048037.01,57450,21.75,74370.3,4.25,-31.17,-31.33,0,*7B
1504048038.23,57451,21.75,74368.8,4.25,-31.17,-31.29,0,*71
1504048039.45,57452,21.75,74370.3,4.27,-31.29,-31.51,0,*72
1504048040.68,57453,21.75,74368.3,4.29,-31.45,-31.61,0,*74
1504048041.91,57454,21.75,74368.5,4.25,-31.45,-31.67,0,*79
1504048043.13,57455,21.75,74366.0,4.25,-31.45,-31.67,0,*78
1504048044.38,57456,21.75,74370.5,4.25,-31.33,-31.61,0,*7C
1504048045.58,57457,21.75,74370.3,4.23,-31.29,-31.45,0,*76
1504048046.83,57458,21.75,74370.0,4.25,-31.11,-31.33,0,*75
1504048048.08,57459,21.75,74370.8,4.25,-31.11,-31.33,0,*74
1504048049.33,57460,21.75,74368.3,4.25,-31.29,-31.51,0,*71
1504048050.54,57461,21.75,74370.0,4.25,-31.29,-31.67,0,*75
1504048051.77,57462,21.75,74370.3,4.25,-31.45,-31.67,0,*7C
1504048053.01,57463,21.75,74366.5,4.25,-31.51,-31.79,0,*77
1504048054.25,57464,21.75,74368.0,4.25,-31.67,-31.91,0,*73
1504048055.5,57465,21.75,74370.0,4.23,-31.11,-31.39,0,*77
1504048056.75,57466,21.75,74368.0,4.25,-31.51,-31.79,0,*72
1504048058.0,57467,21.75,74364.5,4.23,-31.57,-31.85,0,*70
1504048059.24,57468,21.75,74370.8,4.25,-31.33,-31.61,0,*71
1504048060.49,57469,21.75,74368.0,4.25,-31.33,-31.61,0,*70
1504048061.73,57470,21.75,74366.8,4.25,-31.33,-31.73,0,*7B
1504048062.98,57471,21.75,74370.0,4.23,-31.51,-31.73,0,*78
1504048064.22,57472,21.75,74370.3,4.25,-31.29,-31.61,0,*71
1504048065.44,57473,21.75,74368.3,4.23,-31.33,-31.57,0,*78
1504048066.66,57474,21.75,74368.5,4.23,-31.39,-31.67,0,*76
1504048067.87,57475,21.75,74370.3,4.23,-31.39,-31.67,0,*77
1504048069.1,57476,21.75,74370.3,4.23,-31.11,-31.33,0,*7F
1504048070.33,57477,21.75,74368.0,4.23,-31.11,-31.33,0,*7E
1504048071.58,57478,21.75,74370.8,4.25,-31.11,-31.29,0,*7C
1504048072.8,57479,21.75,74370.3,4.27,-31.29,-31.61,0,*78
1504048074.02,57480,21.75,74370.0,4.23,-31.51,-31.67,0,*73
1504048075.26,57481,21.75,74368.5,4.23,-31.51,-31.85,0,*7E
1504048076.48,57482,21.75,74370.5,4.23,-31.67,-31.85,0,*78
1504048077.73,57483,21.75,74368.5,4.23,-31.57,-31.91,0,*7F
1504048078.98,57484,21.75,74368.3,4.23,-31.39,-31.85,0,*75
1504048080.22,57485,21.75,74366.3,4.23,-31.57,-31.73,0,*75
1504048081.46,57486,21.75,74364.5,4.23,-31.39,-31.73,0,*7E
1504048082.71,57487,21.75,74368.0,4.23,-31.57,-31.85,0,*7E
1504048083.93,57488,21.75,74368.5,4.23,-31.67,-31.91,0,*77
1504048085.18,57489,21.75,74368.5,4.23,-31.57,-31.91,0,*75
1504048086.4,57490,21.75,74370.8,4.23,-31.73,-32.01,0,*71
1504048087.63,57491,21.75,74368.3,4.19,-31.45,-31.73,0,*7A
1504048088.9,57492,21.75,74368.3,4.21,-31.57,-31.85,0,*78
1504048090.15,57493,21.75,74368.0,4.21,-31.67,-31.85,0,*7A
1504048091.42,57494,21.75,74370.0,4.21,-31.57,-31.91,0,*7B
1504048092.65,57495,21.75,74370.3,4.19,-31.57,-31.79,0,*77
1504048093.93,57496,21.75,74368.5,4.21,-31.57,-31.91,0,*79
1504048095.2,57497,21.75,74370.8,4.21,-31.57,-31.85,0,*7D
1504048096.46,57498,21.75,74368.5,4.19,-31.61,-31.95,0,*7D
1504048097.74,57499,21.75,74372.8,4.21,-31.73,-32.07,0,*7C
1504048098.96,57500,21.75,74368.8,4.19,-31.91,-32.13,0,*7F
1504048100.18,57501,21.75,74368.8,4.19,-31.91,-32.13,0,*7E
1504048101.43,57502,21.75,74370.0,4.19,-31.73,-31.95,0,*7C
1504048102.71,57503,21.75,74370.0,4.17,-31.73,-31.91,0,*77